Location: Bonningues
(50.7927°N, 2.0150°E)
Time: 10:40:17
(UTC+00:00)

Cosmos 2360 Rocket - Pass Details

Date: 08 August 2020
Orbit: 833 x 845 km, 71.0° (Epoch: 20 September)

Event Time Altitude Azimuth Distance (km) Brightness Sun altitude
Rises 20:25:55 0° 330° (NNW) 3,417 6.8 -9.0°
Reaches altitude 10° 20:29:17 10° 350° (N) 2,479 5.4 -9.4°
Maximum altitude 20:32:59 17° 31° (NNE) 2,001 4.3 -9.8°
Drops below altitude 10° 20:36:41 10° 72° (ENE) 2,471 4.3 -10.3°
Enters shadow 20:39:01 - 87° (E) 3,098 4.7 -10.5°
